Location: Hildy
(48.3667°N, 4.5333°W)
Time: 01:19:32
(UTC+00:00)

Daily predictions for brighter satellites

Satellite Brightness Start Highest point End
(mag) Time Altitude Azimuth Time Altitude Azimuth Time Altitude Azimuth
ATLAS 3B R/B 4.1 03:30:35 31° NE 03:30:35 31° NE 03:35:51 10° E
NOSS 3-2 (C) 4.3 04:00:07 60° SE 04:00:07 60° SE 04:06:51 10° SE
CENTAUR R/B 3.3 04:01:35 69° SE 04:01:35 69° SE 04:09:10 10° SE
ATLAS 2AS CENTAUR R/B 3.8 04:15:30 23° S 04:20:10 47° ESE 04:27:36 10° NE
Cosmos 2297 Rocket 4.5 04:30:30 13° N 04:30:30 13° N 04:31:13 10° N
ATLAS CENTAUR R/B 3.8 04:32:06 19° ENE 04:32:06 19° ENE 04:33:48 10° E
Lacrosse 5 3.0 04:32:03 38° SE 04:32:03 38° SE 04:36:31 10° ENE
Cosmos 2263 Rocket 2.4 04:43:11 64° NNE 04:43:11 64° NNE 04:47:58 10° NNE
SJ 16-02 2.5 04:45:52 42° ENE 04:45:52 42° ENE 04:49:15 10° NNE
Meteor 1-26 Rocket 4.5 04:48:58 25° N 04:52:24 67° ENE 04:57:59 10° SSE
FENGYUN 3A 3.7 04:53:48 10° NNE 04:59:15 77° ESE 05:04:39 10° S
Cosmos 2181 Rocket 4.0 04:57:23 10° N 05:03:39 82° E 05:09:47 10° S
USA 307 4.1 05:05:08 35° NNE 05:05:08 35° NNE 05:08:20 10° ENE
COSMO-SKYMED 1 3.2 05:02:15 10° SSE 05:06:29 55° ENE 05:07:59 36° NNE
Cosmos 1709 Rocket 3.9 05:00:41 10° SSW 05:07:03 79° W 05:13:29 10° N
USA 308 4.0 05:11:14 36° NNE 05:11:14 36° NNE 05:14:43 10° ENE
Lacrosse 4 Rocket 2.8 05:14:32 30° S 05:14:32 30° S 05:16:56 10° SSE
Meteor 2-3 Rocket 3.7 05:08:34 10° S 05:14:18 86° E 05:20:08 10° NNE
CZ-4C R/B 2.8 05:11:05 17° SSW 05:14:45 52° ESE 05:20:28 10° NE
Cosmos 1943 4.1 05:17:53 33° SW 05:17:53 33° SW 05:21:28 10° S
CZ-4B R/B 4.2 05:13:26 10° NNE 05:17:47 45° E 05:22:01 10° S
FALCON 9 DEB 4.5 05:18:33 36° ESE 05:18:33 36° ESE 05:20:59 10° ENE
Cosmos 1689 Rocket 4.1 05:16:42 10° SE 05:18:12 26° SE 05:18:12 26° SE
ATLAS 3B R/B 2.7 05:17:51 35° NW 05:21:09 88° ENE 05:28:22 10° SE
SAR-Lupe-4 3.9 05:19:42 10° SSE 05:22:38 58° SSE 05:22:38 58° SSE
Genesis I 4.4 05:24:54 16° S 05:27:33 41° ESE 05:31:11 10° NE
SKYMED 3 4.4 05:26:09 10° SSE 05:30:29 86° WSW 05:32:17 35° NNW
deb Chang Zheng 4 3.4 05:27:19 10° NNE 05:31:41 86° WNW 05:36:02 10° SSW
ALOS 2.3 05:27:17 10° N 05:31:45 54° WNW 05:31:45 54° WNW
Cosmos 923 Rocket 4.1 05:34:01 46° WNW 05:34:54 52° WSW 05:40:01 10° S
Cosmos 990 Rocket 4.1 05:29:52 10° SSW 05:35:05 78° ESE 05:40:23 10° NNE
Cosmos 2074 Rocket 4.2 05:30:53 10° S 05:37:03 74° E 05:43:16 10° NNE
Cosmos 2227 Rocket 4.2 05:39:02 12° NNW 05:39:02 12° NNW 05:40:14 10° N
METEOR-M 4.0 05:34:02 10° N 05:39:19 64° WNW 05:44:36 10° SSW
USA 305 3.7 05:38:55 36° NNW 05:39:38 39° N 05:43:42 10° ENE
SAR-Lupe-1 4.0 05:36:44 10° S 05:40:08 66° WSW 05:40:08 66° WSW
Meteor 1-31 Rocket 3.3 05:37:40 10° N 05:40:29 42° NNW 05:40:29 42° NNW
Cosmos 405 Rocket 4.0 05:39:28 10° SSE 05:42:56 40° E 05:46:28 10° NNE
ARGOS Delta rocket 4.3 05:39:09 10° N 05:43:57 40° WNW 05:44:16 39° WNW
Cosmos 1812 3.2 05:42:50 11° N 05:46:31 59° ENE 05:50:18 10° SSE
EO 1 Delta rocket 4.0 05:42:41 10° SSE 05:47:39 73° ENE 05:52:15 10° N
USA 306 3.7 05:47:01 33° NNW 05:48:07 40° N 05:52:11 10° ENE
Cosmos 2228 Rocket 3.4 05:44:36 10° N 05:49:01 65° ENE 05:53:23 10° SSE
Cosmos 1515 Rocket 3.5 05:46:48 22° NNW 05:49:35 63° W 05:53:59 10° S
CENTAUR R/B 4.0 05:48:50 26° W 05:50:26 27° WSW 05:57:26 10° SSW
Cosmos 158 Rocket 4.3 05:50:30 36° W 05:50:59 36° WSW 05:55:31 10° S
NOSS 3-4 (A) 3.5 05:48:19 29° WSW 05:51:19 54° NW 05:57:39 10° NE
SL-4 R/B 2.2 05:50:37 43° NW 05:51:23 50° N 05:55:00 10° ENE
NOSS 3-4 (C) 3.5 05:48:23 28° WSW 05:51:27 55° NW 05:57:47 10° NE
Cosmos 1151 Rocket 4.4 05:53:56 22° SW 05:53:56 22° SW 05:55:56 10° SSW
Cosmos 1782 3.1 05:52:14 43° W 05:52:30 44° W 05:56:20 10° SSW
PSLV R/B 3.8 05:49:02 10° S 05:53:09 67° WSW 05:55:47 21° NNW
Cosmos 2184 Rocket 4.0 05:48:13 10° S 05:54:33 88° W 06:00:59 10° N
SKYMED 2 3.7 05:50:24 10° S 05:54:36 49° W 05:56:36 28° NW
ERS-2 4.4 05:53:29 10° SSW 05:53:52 12° SSW 05:53:52 12° SSW
FALCON 9 DEB 2.8 05:56:58 52° WSW 05:57:40 89° NNW 06:00:53 10° ENE
Meteor 2-17 Rocket 4.4 05:52:16 10° SSW 05:58:12 59° WNW 06:04:13 10° N
SJ-12 3.9 05:54:44 10° N 05:58:43 54° WNW 06:02:40 10° SSW
Cosmos 1844 Rocket 2.7 05:54:57 10° SSW 06:00:36 84° ESE 06:06:19 10° NNE
FALCON 9 DEB 4.0 05:59:52 33° NNW 06:00:41 39° N 06:03:59 10° ENE
Cosmos 1680 Rocket 4.0 06:00:25 26° NW 06:02:45 40° WSW 06:07:40 10° S
EXPRESS MD2 3.7 06:03:36 33° WNW 06:05:19 87° NNE 06:12:12 10° ESE
COSMOS 2455 3.9 06:02:57 10° S 06:08:43 50° ESE 06:14:31 10° NE
RESURS DK-1 2.3 06:04:49 10° SW 06:08:57 66° WNW 06:13:07 10° NNE
ATLAS CENTAUR R/B 1.4 06:08:18 32° WNW 06:09:40 48° WSW 06:13:27 10° SSE
BREEZE-M DEB 4.2 06:02:56 21° WNW 06:10:00 58° SW 06:13:35 10° SE
Meteor PRIRODA 3.7 06:06:26 10° N 06:10:06 55° WNW 06:13:45 10° SSW
ATLAS 2AS CENTAUR R/B 3.1 06:03:18 10° WSW 06:11:09 58° NW 06:18:51 10° NE
Cosmos 2344 4.5 06:03:02 15° NW 06:11:14 67° WSW 06:24:20 10° SSE
ERBS 3.9 06:11:05 20° NNW 06:11:27 20° N 06:14:01 10° NE
EP 3 3.6 06:11:51 71° E 06:11:51 71° E 06:13:39 10° NE
ADEOS 4.2 06:09:04 10° N 06:13:39 32° WNW 06:18:13 10° SW
Cosmos 1500 Rocket 3.4 06:09:53 10° SSW 06:14:10 67° W 06:18:30 10° N
H-2A R/B 2.7 06:10:32 10° N 06:14:28 81° WNW 06:18:21 10° SSW
Cosmos 1844 3.7 06:08:57 10° SSW 06:14:30 86° ESE 06:20:08 10° NNE
Lacrosse 5 2.0 06:11:18 20° WSW 06:14:42 58° NNW 06:19:43 10° NE
Cosmos 1437 Rocket 2.7 06:12:50 10° N 06:16:39 80° E 06:20:25 10° SSE
Meteor 2-6 Rocket 4.2 06:14:11 10° NNW 06:19:27 55° W 06:24:44 10° S
Okean O Rocket 3.3 06:16:20 10° NNE 06:20:29 37° E 06:24:37 10° SSE
SJ 16-02 2.5 06:22:57 21° WNW 06:23:49 22° NW 06:27:19 10° N
SMAP 4.2 06:19:42 10° NNE 06:24:14 48° E 06:28:43 10° S
Cosmos 2263 Rocket 3.4 06:24:56 18° WNW 06:26:57 22° NW 06:31:18 10° N
Gbstr 26 Del rocket 4.0 06:26:06 18° W 06:27:56 26° SW 06:31:16 10° SSE
FALCON 9 DEB 3.0 06:28:58 20° W 06:31:02 60° NNW 06:34:14 10° ENE
ATLAS 5 CENTAUR R/B 3.8 06:27:38 10° S 06:31:06 27° ESE 06:34:52 10° ENE
FALCON 9 DEB 3.0 06:29:04 20° W 06:31:06 58° NNW 06:34:18 10° ENE
Nadezhda 3 Rocket 4.0 06:28:08 10° NNW 06:34:20 61° W 06:40:27 10° S
Cosmos 1898 Rocket 3.9 06:29:31 10° SW 06:34:34 43° WNW 06:39:40 10° NNE
Sich 1 3.2 06:30:27 10° S 06:34:52 80° E 06:39:20 10° NNE
SJ-7 4.4 06:32:16 10° N 06:36:17 59° WNW 06:40:19 10° SSW
CZ-2C R/B 3.0 06:31:06 10° SSE 06:36:33 72° ENE 06:41:55 10° N
Cosmos 1743 Rocket 4.0 06:34:05 10° SW 06:38:15 38° WNW 06:42:29 10° N
H-2A R/B 2.2 06:34:39 10° NNE 06:38:31 85° WNW 06:42:20 10° SSW
Envisat 2.9 06:33:34 10° NNE 06:38:40 79° WNW 06:43:44 10° SSW
COSMO-SKYMED 1 4.1 06:40:07 10° SW 06:43:00 17° W 06:45:11 13° WNW
USA 307 3.4 06:41:18 14° WNW 06:44:53 53° NNE 06:49:07 10° E
Cosmos 2082 Rocket 3.4 06:41:43 10° NNW 06:47:06 40° NE 06:52:27 10° ESE
CZ-4B R/B 3.5 06:42:59 10° NNE 06:48:21 71° ESE 06:53:46 10° S
CZ-4 R/B 4.4 06:47:43 10° NE 06:50:41 18° E 06:53:38 10° SE
USA 308 3.3 06:47:25 12° WNW 06:51:16 56° NNE 06:55:30 10° E
Cosmos 1937 Rocket 3.9 06:46:40 10° SW 06:51:32 41° WNW 06:56:28 10° NNE
Cosmos 1862 Rocket 4.2 06:47:44 10° N 06:52:10 59° ENE 06:56:32 10° SSE
CZ-4B R/B 4.2 06:48:59 10° N 06:52:34 24° WNW 06:56:05 10° WSW
FALCON 9 DEB 3.3 06:50:57 11° W 06:53:57 47° NNW 06:57:06 10° ENE
NOSS 7 (E) 4.4 06:50:54 10° SW 06:54:24 51° NW 06:57:25 10° NNE
MOS 1 Rocket 4.1 06:50:54 10° SSW 06:55:17 34° W 06:59:57 10° NNW
Aureole 2 Rocket 2.6 06:54:20 10° WSW 06:56:34 27° WNW 06:58:51 10° N
Meteor 2-12 Rocket 4.4 06:51:01 10° SSW 06:57:10 77° W 07:03:22 10° N
Cosmos 1833 Rocket 2.9 06:51:39 10° NNW 06:57:19 75° ENE 07:02:55 10° SSE
Cosmos 1805 Rocket 3.8 06:53:05 10° SSW 06:57:22 47° WNW 07:01:43 10° N
Meteor 1-27 Rocket 4.0 06:55:36 10° NNW 07:01:10 52° W 07:06:50 10° S
Cosmos 2154 Rocket 4.3 06:55:58 10° SW 07:01:52 44° WNW 07:07:52 10° N
YAOGAN 6 3.1 06:58:40 10° N 07:01:54 35° WNW 07:05:05 10° SW
Cosmos 494 Rocket 4.2 06:58:03 10° NNW 07:03:16 77° ENE 07:08:24 10° SSE
CZ-4C R/B 2.8 06:58:33 10° WSW 07:03:29 39° NNW 07:09:24 10° NE
Cosmos 1862 4.5 07:00:22 10° SW 07:03:40 23° WNW 07:06:57 10° NNW
BREEZE-M DEB (TANK) 3.4 07:01:19 10° W 07:04:15 65° S 07:10:45 10° E
Cosmos 1666 Rocket 3.5 07:00:06 10° SSW 07:04:25 80° W 07:08:47 10° N
Genesis I 4.1 07:01:54 10° W 07:05:14 28° NW 07:08:37 10° NNE
Cosmos 2150 Rocket 4.1 07:01:31 10° SSW 07:06:51 87° ESE 07:12:08 10° NNE
Cosmos 2298 Rocket 4.1 07:02:03 10° SSW 07:07:21 87° WNW 07:12:42 10° NNE
COSMOS 2406 3.3 07:01:58 10° NNW 07:07:45 78° WSW 07:13:29 10° SSE
Cosmos 1125 Rocket 4.1 07:02:46 10° S 07:07:55 65° ESE 07:13:05 10° NNE
Cosmos 1048 Rocket 4.0 07:02:46 10° NNW 07:08:02 69° WSW 07:13:10 10° S
ATLAS 3B R/B 4.0 07:05:52 10° WNW 07:11:07 23° WSW 07:16:30 10° SSW
DMSP B5D2-2 4.1 07:06:36 10° S 07:11:49 76° WSW 07:17:04 10° NNW
Cosmos 2278 Rocket 2.7 07:10:36 10° SSW 07:16:12 68° ESE 07:21:51 10° NNE
Cosmos 2341 Rocket 4.1 07:11:44 10° SSW 07:17:51 60° WNW 07:24:01 10° N
